CZ-3B DEB, 40165

Orbit data source: Space-Track

CZ-3B DEB, 40165 is space debris in HEO originally from a launch on Sat, 04 Sep 2010 UTC launched from the Xichang Space Center, China (XSC). Debris objects in space refer to the collection of defunct objects orbiting the Earth. Examples of debris include non-operational satellites, rocket bodies, and fragments generated from explosions, collisions, or faulty payload assembly.

Loading next visibility...
Identifier
40165, 2010-042S
Orbit
HEO
Country
Flag of CNCN / PRC
Related business
Manufacturer
CALT
Mission
Spacecraft
Bus & Motor
Unknown
Mass
Unknown
Launch date (UTC)
2010-09-04 (16 years ago)
Launch vehicle
Unknown
Launch site
Xichang Space Center, China (XSC)
Object type
Payload
Rocket body
Debris
Shape & HBR
Unknown shape, 0.2 m
Radar Cross Section
Medium (>0.1 m² and <1 m²)

Expand to show TLE details & history
Last TLE update: 3 days ago

TLE from 3 days ago
0 CZ-3B DEB
1 40165U 10042S   26170.30057825  .00000052  00000-0  40880-2 0  9998
2 40165  27.8192 112.2044 7353468 187.6358 357.3784  1.92965188103904
Epoch: 2026-06-19T07:12Z
TLE epoch observation values (Epoch: 2026-06-19T07:12:49.960Z)
Latitude
7.19703°
Longitude
-97.30782°
Altitude
1,069.671 km
Speed
9.613 km/s
True Right ascension
18h 33m 43s
True Declination
7° 09' 22"
Sunlit
Object was in full shadow at epoch
Visualization orbit readout
Latitude
Unknown
Longitude
Unknown
Altitude
Unknown
Speed
Unknown
Apparent Right ascension
Unknown
Apparent Declination
Unknown
Sunlit
N/A
Visualization observer readout
Local Sidereal Time
21:37:34
Azimuth
Unknown
Elevation
Unknown
Doppler factor
Unknown
Orbital elements
Apogee altitude
40,921.534 km
Perigee altitude
835.412 km
Semi-major axis
27,256.61 km
Eccentricity
0.73535
Inclination
27.8192°
RAAN
112.2044°
Arg. of periapsis
187.6358°
True anomaly
335.30018°
Mean anomaly
357.3784°
Eccentric anomaly
350.22574°
Mean motion
0.48232 °/min
Orbital period
746.39 mins
BSTAR
0.004088
Loading maneuver chart data...
Computing Atmospheric mass density...
Loading historical data...
Loading historical data...
Loading historical data...
Loading historical data...
Loading historical data...
Loading historical data...
Loading historical data...

Documentation

Showing up to 5 results
|